{"data":{"norad_id":59731,"epoch":"2026-09-21T09:28:24.285792Z","epoch_age_seconds":94058,"freshness":"FRESH","line1":"1 59731U 24090B   26264.39472553  .00000356  00000+0  22451-4 0  9999","line2":"2 59731  43.0008 158.0010 0000963 270.1475  89.9266 15.27576896133374","mean_motion":15.27576896,"eccentricity":9.63e-5,"inclination_deg":43.0008,"raan_deg":158.001,"arg_perigee_deg":270.1475,"mean_anomaly_deg":89.9266,"bstar":2.2451e-5,"rev_number":13337,"period_min":94.266940261448,"perigee_km":482.39765743194,"apogee_km":483.71912366416,"semimajor_km":6861.195390548,"source":"CELESTRAK","updated_at":"2026-09-22T09:00:49.061867Z"}}